This demonstration page uses our WeatherBlox Daily Observations layout. Learn more.

Hourly Observations for December 5, 2017

Temp ( °F °C ) Dew Point ( °F °C ) Humidity (%) Winds ( mph kmh ) Pressure ( in mb ) Visibility ( mi km ) Precip ( " mm )
12:15 am 00:15 Clear 17 -8.3 6 -14.7 60 60 W 7 11 30.36 1028 10 16.09344 0 0
12:35 am 00:35 Clear 18 -8 6 -14.5 60 60 W 8 13 30.36 1028 10 16.09344 0 0
12:55 am 00:55 Clear 17 -8.1 6 -14.5 60 60 W 7 11 30.36 1028 10 16.09344 0 0
1:15 am 01:15 Clear 17 -8.6 6 -14.4 63 63 WNW 8 13 30.36 1028 10 16.09344 0 0
1:35 am 01:35 Clear 17 -8.2 6 -14.5 61 61 W 7 11 30.36 1028 10 16.09344 0 0
1:50 am 01:50 Clear 17 -8.3 7 -14 64 64 WSW 8 13 30.36 1028 10 16.09344 0 0
2:15 am 02:15 Clear 18 -7.9 7 -13.8 63 63 W 9 15 30.33 1027 10 16.09344 0 0
2:35 am 02:35 Clear 17 -8.2 7 -13.9 64 64 W 10 17 30.36 1028 10 16.09344 0 0
2:55 am 02:55 Clear 17 -8.2 8 -13.5 66 66 W 10 17 30.36 1028 10 16.09344 0 0
3:15 am 03:15 Clear 17 -8.2 8 -13.1 68 68 W 9 15 30.36 1028 10 16.09344 0 0
3:35 am 03:35 Clear 17 -8.3 9 -13 69 69 W 12 19 30.36 1028 10 16.09344 0 0
3:55 am 03:55 Clear 17 -8.1 9 -13 68 68 W 12 19 30.36 1028 10 16.09344 0 0
4:15 am 04:15 Clear 17 -8.5 9 -12.7 72 72 W 13 20 30.36 1028 10 16.09344 0 0
4:35 am 04:35 Clear 17 -8.6 10 -12.5 74 74 W 12 19 30.36 1028 10 16.09344 0 0
4:55 am 04:55 Clear 17 -8.3 10 -12.1 74 74 W 16 26 30.36 1028 10 16.09344 0 0
5:15 am 05:15 Clear 17 -8.4 10 -12.1 75 75 W 15 24 30.36 1028 10 16.09344 0 0
5:35 am 05:35 Partly Cloudy 17 -8.3 10 -12 75 75 W 15 24 30.36 1028 10 16.09344 0 0
5:55 am 05:55 Partly Cloudy 17 -8.3 10 -12 75 75 W 13 20 30.36 1028 10 16.09344 0 0
6:15 am 06:15 Partly Cloudy 17 -8.1 11 -11.9 74 74 W 12 19 30.39 1029 10 16.09344 0 0
6:35 am 06:35 Partly Cloudy 18 -7.8 11 -11.7 74 74 W 13 20 30.39 1029 10 16.09344 0 0
6:55 am 06:55 Partly Cloudy 19 -7 12 -11.3 72 72 W 16 26 30.36 1028 10 16.09344 0 0
7:15 am 07:15 Clear 20 -6.8 12 -11.2 71 71 W 14 22 30.36 1028 10 16.09344 0 0
7:35 am 07:35 Clear 20 -6.4 12 -11 70 70 W 16 26 30.36 1028 10 16.09344 0 0
7:55 am 07:55 Sunny 20 -6.5 12 -11 71 71 W 16 26 30.36 1028 10 16.09344 0 0
8:15 am 08:15 Sunny 20 -6.5 13 -10.7 72 72 W 13 20 30.39 1029 10 16.09344 0 0
8:35 am 08:35 Sunny 22 -5.8 14 -10.1 72 72 W 16 26 30.39 1029 10 16.09344 0 0
8:55 am 08:55 Sunny 24 -4.6 15 -9.6 68 68 W 16 26 30.39 1029 10 16.09344 0 0
9:15 am 09:15 Sunny 27 -2.6 16 -8.9 62 62 W 15 24 30.36 1028 10 16.09344 0 0
9:35 am 09:35 Sunny 30 -0.9 16 -8.7 56 56 W 16 26 30.33 1027 10 16.09344 0 0
9:55 am 09:55 Sunny 32 -0.1 16 -8.8 52 52 W 21 33 30.33 1027 10 16.09344 0 0
10:15 am 10:15 Sunny 33 0.7 17 -8.3 51 51 W 18 30 30.33 1027 10 16.09344 0 0
10:35 am 10:35 Sunny 35 1.8 17 -8.3 47 47 W 21 33 30.3 1026 10 16.09344 0 0
10:55 am 10:55 Sunny 37 2.5 17 -8.4 45 45 W 16 26 30.3 1026 10 16.09344 0 0
11:15 am 11:15 Sunny 38 3.6 17 -8.6 41 41 W 20 31 30.3 1026 10 16.09344 0 0
11:35 am 11:35 Sunny 40 4.3 16 -8.7 39 39 W 18 30 30.27 1025 10 16.09344 0 0
11:55 am 11:55 Sunny 41 5 17 -8.5 37 37 W 21 33 30.24 1024 10 16.09344 0 0
12:15 pm 12:15 Sunny 42 5.3 15 -9.3 34 34 W 20 31 30.21 1023 10 16.09344 0 0
12:35 pm 12:35 Sunny 42 5.5 14 -9.9 32 32 W 17 28 30.21 1023 10 16.09344 0 0
12:55 pm 12:55 Sunny 43 6 14 -10 31 31 WNW 16 26 30.18 1022 10 16.09344 0 0
1:15 pm 13:15 Sunny 44 6.4 14 -10.2 30 30 W 18 30 30.18 1022 10 16.09344 0 0
1:35 pm 13:35 Sunny 44 6.5 13 -10.5 29 29 W 23 37 30.18 1022 10 16.09344 0 0
1:55 pm 13:55 Sunny 44 6.4 14 -10 30 30 WNW 17 28 30.18 1022 10 16.09344 0 0
2:15 pm 14:15 Sunny 44 6.6 14 -10 30 30 W 21 33 30.18 1022 10 16.09344 0 0
2:35 pm 14:35 Sunny 44 6.9 14 -10 29 29 WNW 16 26 30.18 1022 10 16.09344 0 0
2:55 pm 14:55 Sunny 45 7 15 -9.5 30 30 WNW 18 30 30.18 1022 10 16.09344 0 0
3:15 pm 15:15 Sunny 45 7 15 -9.3 31 31 WNW 20 31 30.18 1022 10 16.09344 0 0
3:35 pm 15:35 Sunny 45 7.1 15 -9.3 30 30 WNW 20 31 30.15 1021 10 16.09344 0 0
3:55 pm 15:55 Sunny 44 6.7 15 -9.5 31 31 W 18 30 30.18 1022 10 16.09344 0 0
4:15 pm 16:15 Sunny 44 6.7 15 -9.2 31 31 W 18 30 30.18 1022 10 16.09344 0 0
4:35 pm 16:35 Sunny 42 5.8 15 -9.4 33 33 W 18 30 30.18 1022 10 16.09344 0 0
4:55 pm 16:55 Partly Cloudy 41 5.2 15 -9.3 35 35 W 15 24 30.18 1022 10 16.09344 0 0
5:15 pm 17:15 Mostly Cloudy 41 5.1 15 -9.3 35 35 W 15 24 30.18 1022 10 16.09344 0 0
5:35 pm 17:35 Partly Cloudy 40 4.5 15 -9.7 35 35 W 15 24 30.18 1022 10 16.09344 0 0
5:55 pm 17:55 Clear 39 4 14 -10 36 36 W 14 22 30.18 1022 10 16.09344 0 0
6:15 pm 18:15 Clear 38 3.5 14 -10.1 37 37 W 14 22 30.21 1023 10 16.09344 0 0
6:35 pm 18:35 Clear 38 3.5 14 -9.8 37 37 W 14 22 30.21 1023 10 16.09344 0 0
6:55 pm 18:55 Clear 37 3 15 -9.7 39 39 W 13 20 30.21 1023 10 16.09344 0 0
7:15 pm 19:15 Clear 36 2.1 15 -9.6 42 42 W 12 19 30.21 1023 10 16.09344 0 0
7:35 pm 19:35 Clear 36 2.2 15 -9.5 42 42 W 14 22 30.21 1023 10 16.09344 0 0
7:55 pm 19:55 Clear 34 0.9 15 -9.5 46 46 W 10 17 30.21 1023 10 16.09344 0 0
8:15 pm 20:15 Clear 35 1.5 16 -8.8 47 47 W 12 19 30.21 1023 10 16.09344 0 0
8:35 pm 20:35 Clear 35 1.6 16 -8.7 47 47 W 13 20 30.21 1023 10 16.09344 0 0
8:55 pm 20:55 Mostly Cloudy 35 1.9 17 -8.6 46 46 WNW 13 20 30.21 1023 10 16.09344 0 0
9:15 pm 21:15 Partly Cloudy 35 1.7 17 -8.5 47 47 W 10 17 30.24 1024 10 16.09344 0 0
9:35 pm 21:35 Clear 34 1 17 -8.4 50 50 W 10 17 30.27 1025 10 16.09344 0 0
9:55 pm 21:55 Clear 35 1.7 18 -8 49 49 W 12 19 30.24 1024 10 16.09344 0 0
10:15 pm 22:15 Clear 36 2 18 -7.6 49 49 W 10 17 30.24 1024 10 16.09344 0 0
10:35 pm 22:35 Clear 35 1.5 18 -7.6 51 51 W 10 17 30.24 1024 10 16.09344 0 0
10:55 pm 22:55 Clear 35 1.5 19 -7.5 52 52 W 10 17 30.24 1024 10 16.09344 0 0
11:15 pm 23:15 Clear 35 1.5 19 -7.5 52 52 W 10 17 30.27 1025 10 16.09344 0 0
11:35 pm 23:35 Clear 35 1.5 20 -6.7 55 55 WNW 12 19 30.27 1025 10 16.09344 0 0
11:55 pm 23:55 Clear 35 1.4 20 -6.4 57 57 NW 10 17 30.27 1025 10 16.09344 0 0

Powered by AerisWeather